TimeCEST,TemperatureF,Dew PointF,Humidity,Sea Level PressureIn,VisibilityMPH,Wind Direction,Wind SpeedMPH,Gust SpeedMPH,PrecipitationIn,Events,Conditions,WindDirDegrees,DateUTC
12:00 AM,62.6,50.0,63,29.98,6.2,West,5.8,-,N/A,,Scattered Clouds,280,2013-03-30 23:00:00
12:30 AM,60.8,50.0,68,29.98,6.2,WNW,8.1,-,N/A,,Scattered Clouds,290,2013-03-30 23:30:00
1:00 AM,63,51,54,29.98,19,WNW,8.1,,,,Partly Cloudy,290,2013-03-31 00:00:00
1:00 AM,60.8,50.0,68,29.98,6.2,WNW,8.1,-,N/A,,Partly Cloudy,290,2013-03-31 00:00:00
1:30 AM,62.6,48.2,59,29.98,6.2,West,5.8,-,N/A,,Partly Cloudy,270,2013-03-31 00:30:00
3:00 AM,62.6,48.2,59,29.95,6.2,West,8.1,-,N/A,,Scattered Clouds,280,2013-03-31 01:00:00
3:30 AM,62.6,48.2,59,29.95,6.2,WNW,6.9,-,N/A,,Scattered Clouds,290,2013-03-31 01:30:00
4:00 AM,62.6,48.2,59,29.95,6.2,WNW,8.1,-,N/A,,Scattered Clouds,290,2013-03-31 02:00:00
4:30 AM,62.6,48.2,59,29.92,6.2,West,8.1,-,N/A,,Scattered Clouds,280,2013-03-31 02:30:00
5:00 AM,62.6,48.2,59,29.92,6.2,West,2.3,-,N/A,,Scattered Clouds,270,2013-03-31 03:00:00
5:30 AM,60.8,48.2,63,29.92,6.2,Calm,Calm,-,N/A,,Scattered Clouds,0,2013-03-31 03:30:00
6:00 AM,59.0,50.0,72,29.89,6.2,NW,3.5,-,N/A,,Scattered Clouds,310,2013-03-31 04:00:00
6:30 AM,59.0,50.0,72,29.89,6.2,WNW,1.2,-,N/A,,Partly Cloudy,290,2013-03-31 04:30:00
7:00 AM,59.0,50.0,72,29.89,6.2,NW,2.3,-,N/A,,Partly Cloudy,320,2013-03-31 05:00:00
7:30 AM,59.0,50.0,72,29.89,6.2,WNW,4.6,-,N/A,,Partly Cloudy,290,2013-03-31 05:30:00
8:00 AM,60,50,60,29.89,19,WNW,3.5,,,,Scattered Clouds,290,2013-03-31 06:00:00
8:00 AM,57.2,50.0,77,29.89,6.2,WNW,3.5,-,N/A,,Partly Cloudy,290,2013-03-31 06:00:00
8:30 AM,57.2,50.0,77,29.89,6.2,West,5.8,-,N/A,,Partly Cloudy,280,2013-03-31 06:30:00
9:00 AM,59.0,51.8,77,29.86,6.2,Variable,1.2,-,N/A,,Partly Cloudy,0,2013-03-31 07:00:00
9:30 AM,59.0,51.8,77,29.86,6.2,WNW,1.2,-,N/A,,Partly Cloudy,300,2013-03-31 07:30:00
10:00 AM,60.8,51.8,72,29.89,6.2,Variable,2.3,-,N/A,,Scattered Clouds,0,2013-03-31 08:00:00
10:30 AM,60.8,51.8,72,29.86,6.2,WNW,2.3,-,N/A,,Scattered Clouds,300,2013-03-31 08:30:00
11:00 AM,62.6,53.6,72,29.86,6.2,Variable,2.3,-,N/A,,Scattered Clouds,0,2013-03-31 09:00:00
11:30 AM,62.6,53.6,72,29.86,6.2,West,3.5,-,N/A,,Scattered Clouds,280,2013-03-31 09:30:00
12:00 PM,64.4,51.8,64,29.86,6.2,Variable,2.3,-,N/A,,Scattered Clouds,0,2013-03-31 10:00:00
12:30 PM,64.4,51.8,64,29.86,6.2,Variable,2.3,-,N/A,,Scattered Clouds,0,2013-03-31 10:30:00
1:00 PM,64.4,53.6,68,29.86,6.2,Variable,2.3,-,N/A,,Scattered Clouds,0,2013-03-31 11:00:00
1:30 PM,64.4,55.4,73,29.83,6.2,East,6.9,-,N/A,,Scattered Clouds,90,2013-03-31 11:30:00
2:00 PM,67,59,69,29.84,19,ENE,6.9,,,,Overcast,60,2013-03-31 12:00:00
2:00 PM,66.2,59.0,78,29.83,6.2,ENE,6.9,-,N/A,,Scattered Clouds,60,2013-03-31 12:00:00
2:30 PM,68.0,59.0,73,29.80,6.2,SSW,8.1,-,N/A,,Scattered Clouds,210,2013-03-31 12:30:00
3:00 PM,69.8,59.0,68,29.80,6.2,Variable,2.3,-,N/A,,Scattered Clouds,0,2013-03-31 13:00:00
3:30 PM,69.8,60.8,73,29.80,6.2,SSW,9.2,-,N/A,,Scattered Clouds,200,2013-03-31 13:30:00
4:00 PM,68.0,60.8,78,29.77,6.2,South,6.9,-,N/A,,Scattered Clouds,190,2013-03-31 14:00:00
4:29 PM,68.0,60.8,78,29.77,2.5,North,8.1,-,N/A,Rain,Rain,350,2013-03-31 14:29:00
4:30 PM,68.0,60.8,78,29.77,6.2,North,6.9,-,N/A,Rain,Light Rain,350,2013-03-31 14:30:00
4:31 PM,68.0,60.8,78,29.77,2.5,North,8.1,-,N/A,Rain,Rain,350,2013-03-31 14:31:00
4:44 PM,66.2,60.8,83,29.77,6.2,North,6.9,-,N/A,Rain,Light Rain,10,2013-03-31 14:44:00
5:00 PM,66.2,60.8,83,29.77,6.2,North,4.6,-,N/A,,Scattered Clouds,10,2013-03-31 15:00:00
5:30 PM,66.2,60.8,83,29.77,6.2,Variable,2.3,-,N/A,,Scattered Clouds,0,2013-03-31 15:30:00
6:00 PM,66.2,60.8,83,29.77,6.2,ESE,5.8,-,N/A,,Scattered Clouds,110,2013-03-31 16:00:00
6:30 PM,66.2,60.8,83,29.74,6.2,ENE,1.2,-,N/A,,Scattered Clouds,60,2013-03-31 16:30:00
7:00 PM,64.4,60.8,88,29.74,6.2,SSE,4.6,-,N/A,,Partly Cloudy,160,2013-03-31 17:00:00
7:30 PM,66.2,60.8,83,29.77,6.2,North,5.8,-,N/A,,Scattered Clouds,350,2013-03-31 17:30:00
8:00 PM,67,59,69,29.76,19,NNE,3.5,,,,Partly Cloudy,30,2013-03-31 18:00:00
8:00 PM,66.2,60.8,83,29.74,6.2,NNE,1.2,-,N/A,,Scattered Clouds,30,2013-03-31 18:00:00
8:30 PM,66.2,57.2,73,29.74,6.2,SSW,5.8,-,N/A,,Scattered Clouds,200,2013-03-31 18:30:00
9:00 PM,66.2,55.4,68,29.74,6.2,Variable,2.3,-,N/A,,Scattered Clouds,0,2013-03-31 19:00:00
9:30 PM,66.2,53.6,64,29.74,6.2,SW,4.6,-,N/A,,Scattered Clouds,230,2013-03-31 19:30:00
10:00 PM,66.2,53.6,64,29.77,6.2,SW,10.4,-,N/A,,Scattered Clouds,220,2013-03-31 20:00:00
10:30 PM,64.4,53.6,68,29.74,6.2,SSW,12.7,-,N/A,,Scattered Clouds,200,2013-03-31 20:30:00
11:00 PM,64.4,53.6,68,29.74,6.2,SSW,16.1,-,N/A,,Scattered Clouds,200,2013-03-31 21:00:00
11:30 PM,64.4,53.6,68,29.74,6.2,South,11.5,-,N/A,,Scattered Clouds,170,2013-03-31 21:30:00
12:00 AM,66.2,51.8,60,29.74,6.2,SW,12.7,-,N/A,,Scattered Clouds,220,2013-03-31 22:00:00
12:30 AM,64.4,51.8,64,29.74,6.2,SSW,16.1,-,N/A,,Scattered Clouds,210,2013-03-31 22:30:00